When you browse on this site, cookies collect data to enhance your experience and personalize the content and advertising you see.
Visit our Privacy Policy to learn more. By continuing to use the site, you agree to this use of cookies and data.
  • In Austria
  • List of Countries
  • For 7 days
  • Water Temperature
  • Weather Map
  • News
  • Weather Widgets
  • user-avatar
    Login

    Hourly Weather Jacala

    Today, 25 January, Saturday

    Time Temperature Precipitation Wind Pressure Humidity
    00:00 +11°C° 0 mm 0 mps 632 mmHg 96%
    01:00 +11°C° 0 mm 0 mps 631 mmHg 96%
    02:00 +11°C° 0 mm 0 mps 631 mmHg 96%
    03:00 +11°C° 0 mm 0 mps 631 mmHg 95%
    04:00 +11°C° 0 mm 0 mps 631 mmHg 94%
    05:00 +11°C° 0 mm 0 mps 631 mmHg 94%
    06:00 +12°C° 0 mm 0 mps 632 mmHg 90%
    07:00 +13°C° 0 mm 0 mps 633 mmHg 86%
    08:00 +14°C° 0 mm 0 mps 633 mmHg 83%
    09:00 +16°C° 0 mm 0 mps 634 mmHg 74%
    10:00 +20°C° 0 mm 1 mps 634 mmHg 66%
    11:00 +22°C° 0 mm 1 mps 634 mmHg 58%
    12:00 +22°C° 0 mm 1 mps 633 mmHg 58%
    13:00 +22°C° 0 mm 1 mps 633 mmHg 59%
    14:00 +21°C° 0 mm 2 mps 632 mmHg 59%
    15:00 +20°C° 0.1 mm 1 mps 631 mmHg 69%
    16:00 +19°C° 0.1 mm 1 mps 631 mmHg 78%
    17:00 +16°C° 0.1 mm 1 mps 630 mmHg 87%
    18:00 +16°C° 0 mm 1 mps 630 mmHg 90%
    19:00 +14°C° 0 mm 0 mps 631 mmHg 92%
    20:00 +14°C° 0 mm 0 mps 631 mmHg 94%
    21:00 +13°C° 0 mm 0 mps 631 mmHg 94%
    22:00 +13°C° 0 mm 0 mps 631 mmHg 94%
    23:00 +12°C° 0 mm 0 mps 631 mmHg 93%

    Tomorrow, 26 January, Sunday

    Time Temperature Precipitation Wind Pressure Humidity
    00:00 +12°C° 0 mm 0 mps 631 mmHg 92%
    01:00 +12°C° 0 mm 0 mps 631 mmHg 91%
    02:00 +11°C° 0 mm 0 mps 630 mmHg 90%
    03:00 +12°C° 0 mm 1 mps 630 mmHg 87%
    04:00 +12°C° 0 mm 1 mps 630 mmHg 85%
    05:00 +12°C° 0 mm 1 mps 630 mmHg 82%
    06:00 +14°C° 0 mm 1 mps 631 mmHg 75%
    07:00 +15°C° 0 mm 1 mps 632 mmHg 69%
    08:00 +18°C° 0 mm 1 mps 633 mmHg 62%
    09:00 +20°C° 0 mm 1 mps 633 mmHg 54%
    10:00 +22°C° 0 mm 1 mps 634 mmHg 47%
    11:00 +24°C° 0 mm 1 mps 634 mmHg 40%
    12:00 +24°C° 0.1 mm 1 mps 633 mmHg 42%
    13:00 +24°C° 0.1 mm 1 mps 633 mmHg 45%
    14:00 +23°C° 0.1 mm 2 mps 632 mmHg 47%
    15:00 +22°C° 0.4 mm 1 mps 631 mmHg 56%
    16:00 +20°C° 0.4 mm 1 mps 631 mmHg 66%
    17:00 +18°C° 0.4 mm 1 mps 630 mmHg 75%
    18:00 +16°C° 0.5 mm 1 mps 631 mmHg 78%
    19:00 +15°C° 0.5 mm 1 mps 631 mmHg 82%
    20:00 +13°C° 0.5 mm 0 mps 631 mmHg 85%
    21:00 +14°C° 0.4 mm 0 mps 631 mmHg 84%
    22:00 +14°C° 0.4 mm 0 mps 631 mmHg 83%
    23:00 +14°C° 0.4 mm 0 mps 632 mmHg 82%

    Day after tomorrow, 27 January, Monday

    Time Temperature Precipitation Wind Pressure Humidity
    00:00 +13°C° 0.3 mm 0 mps 631 mmHg 85%
    01:00 +13°C° 0.3 mm 0 mps 631 mmHg 88%
    02:00 +13°C° 0.3 mm 1 mps 630 mmHg 91%
    03:00 +12°C° 0.1 mm 0 mps 630 mmHg 92%
    04:00 +11°C° 0.1 mm 0 mps 630 mmHg 94%
    05:00 +11°C° 0.1 mm 0 mps 630 mmHg 95%
    06:00 +12°C° 0 mm 0 mps 631 mmHg 90%
    07:00 +15°C° 0 mm 1 mps 632 mmHg 85%
    08:00 +16°C° 0 mm 1 mps 632 mmHg 80%
    09:00 +19°C° 0 mm 1 mps 633 mmHg 69%
    10:00 +21°C° 0 mm 1 mps 633 mmHg 58%
    11:00 +24°C° 0 mm 1 mps 634 mmHg 47%
    12:00 +24°C° 0 mm 1 mps 633 mmHg 46%
    13:00 +24°C° 0 mm 2 mps 632 mmHg 44%
    14:00 +24°C° 0 mm 2 mps 631 mmHg 42%
    15:00 +23°C° 0 mm 2 mps 631 mmHg 55%
    16:00 +20°C° 0 mm 2 mps 630 mmHg 67%
    17:00 +19°C° 0 mm 1 mps 630 mmHg 79%
    18:00 +18°C° 0 mm 1 mps 630 mmHg 85%
    19:00 +16°C° 0 mm 1 mps 630 mmHg 90%
    20:00 +14°C° 0 mm 0 mps 630 mmHg 95%
    21:00 +14°C° 0 mm 1 mps 630 mmHg 93%
    22:00 +14°C° 0 mm 1 mps 630 mmHg 91%
    23:00 +14°C° 0 mm 1 mps 629 mmHg 89%

    28 January, Tuesday

    Time Temperature Precipitation Wind Pressure Humidity
    00:00 +14°C° 0 mm 1 mps 629 mmHg 84%
    01:00 +14°C° 0 mm 1 mps 629 mmHg 78%
    02:00 +13°C° 0 mm 1 mps 629 mmHg 73%
    03:00 +13°C° 0 mm 1 mps 629 mmHg 70%
    04:00 +13°C° 0 mm 1 mps 629 mmHg 67%
    05:00 +12°C° 0 mm 1 mps 629 mmHg 65%
    06:00 +14°C° 0 mm 1 mps 630 mmHg 61%
    07:00 +15°C° 0 mm 1 mps 631 mmHg 57%
    08:00 +18°C° 0 mm 1 mps 631 mmHg 53%
    09:00 +21°C° 0 mm 1 mps 632 mmHg 45%
    10:00 +23°C° 0 mm 1 mps 633 mmHg 37%
    11:00 +26°C° 0 mm 1 mps 634 mmHg 29%
    12:00 +25°C° 0 mm 1 mps 633 mmHg 32%
    13:00 +25°C° 0 mm 2 mps 632 mmHg 35%
    14:00 +24°C° 0 mm 2 mps 631 mmHg 39%
    15:00 +21°C° 0.2 mm 2 mps 631 mmHg 55%
    16:00 +19°C° 0.2 mm 2 mps 630 mmHg 71%
    17:00 +16°C° 0.2 mm 2 mps 630 mmHg 87%
    18:00 +15°C° 0.2 mm 2 mps 630 mmHg 89%
    19:00 +15°C° 0.2 mm 2 mps 631 mmHg 91%
    20:00 +14°C° 0.2 mm 1 mps 631 mmHg 93%
    21:00 +13°C° 0.2 mm 1 mps 631 mmHg 93%
    22:00 +12°C° 0.2 mm 2 mps 631 mmHg 93%
    23:00 +10°C° 0.2 mm 2 mps 631 mmHg 94%

    29 January, Wednesday

    Time Temperature Precipitation Wind Pressure Humidity
    00:00 +9°C° 0 mm 2 mps 631 mmHg 92%
    01:00 +10°C° 0 mm 1 mps 631 mmHg 89%
    02:00 +9°C° 0 mm 1 mps 630 mmHg 87%
    03:00 +9°C° 0 mm 1 mps 630 mmHg 86%
    04:00 +8°C° 0 mm 1 mps 630 mmHg 86%
    05:00 +8°C° 0 mm 1 mps 630 mmHg 85%
    06:00 +8°C° 0 mm 1 mps 631 mmHg 82%
    07:00 +9°C° 0 mm 1 mps 631 mmHg 79%
    08:00 +9°C° 0 mm 1 mps 632 mmHg 77%
    09:00 +11°C° 0 mm 1 mps 632 mmHg 70%
    10:00 +13°C° 0 mm 1 mps 632 mmHg 63%
    11:00 +15°C° 0 mm 1 mps 633 mmHg 56%
    12:00 +16°C° 0 mm 2 mps 632 mmHg 55%
    13:00 +16°C° 0 mm 2 mps 631 mmHg 55%
    14:00 +17°C° 0 mm 2 mps 630 mmHg 54%
    15:00 +15°C° 0 mm 2 mps 630 mmHg 61%
    16:00 +13°C° 0 mm 2 mps 629 mmHg 69%
    17:00 +12°C° 0 mm 2 mps 628 mmHg 76%
    18:00 +10°C° 0 mm 1 mps 628 mmHg 82%
    19:00 +9°C° 0 mm 1 mps 628 mmHg 88%
    20:00 +7°C° 0 mm 0 mps 628 mmHg 94%
    21:00 +7°C° 0 mm 0 mps 628 mmHg 93%
    22:00 +7°C° 0 mm 0 mps 628 mmHg 93%
    23:00 +7°C° 0 mm 0 mps 628 mmHg 92%

    30 January, Thursday

    Time Temperature Precipitation Wind Pressure Humidity
    00:00 +7°C° 0 mm 0 mps 628 mmHg 90%
    01:00 +7°C° 0 mm 0 mps 627 mmHg 88%
    02:00 +7°C° 0 mm 0 mps 627 mmHg 86%
    03:00 +8°C° 0 mm 1 mps 627 mmHg 83%
    04:00 +8°C° 0 mm 1 mps 627 mmHg 80%
    05:00 +8°C° 0 mm 1 mps 627 mmHg 77%
    06:00 +10°C° 0 mm 1 mps 628 mmHg 70%
    07:00 +12°C° 0 mm 1 mps 629 mmHg 63%
    08:00 +14°C° 0 mm 1 mps 630 mmHg 56%
    09:00 +17°C° 0 mm 2 mps 630 mmHg 46%
    10:00 +20°C° 0 mm 2 mps 631 mmHg 36%
    11:00 +23°C° 0 mm 2 mps 631 mmHg 27%
    12:00 +24°C° 0 mm 3 mps 631 mmHg 24%
    13:00 +23°C° 0 mm 4 mps 630 mmHg 22%
    14:00 +25°C° 0 mm 5 mps 629 mmHg 20%
    15:00 +22°C° 0 mm 3 mps 629 mmHg 28%
    16:00 +20°C° 0 mm 2 mps 628 mmHg 35%
    17:00 +19°C° 0 mm 1 mps 628 mmHg 43%
    18:00 +16°C° 0 mm 1 mps 628 mmHg 40%
    19:00 +15°C° 0 mm 1 mps 629 mmHg 38%
    20:00 +14°C° 0 mm 1 mps 629 mmHg 35%
    21:00 +13°C° 0 mm 1 mps 629 mmHg 49%
    22:00 +12°C° 0 mm 1 mps 630 mmHg 62%
    23:00 +11°C° 0 mm 1 mps 630 mmHg 75%
    Show more